Regional Weather Roundup
Issued by NWS Huntsville, AL

Home | Current Version | Previous Version | Text Only | Print | Product List | Glossary On
Versions: 1 2 3 4 5 6 7 8 9 10 11 12 13 14 15 16 17 18 19 20 21 22 23 24 25 26 27 28 29 30 31 32 33 34 35 36 37 38 39 40 41 42 43 44 45 46 47 48 49 50
000
ASUS44 KHUN 011410
RWRHUN

WEATHER ROUNDUP FOR THE TENNESSEE VALLEY
NATIONAL WEATHER SERVICE HUNTSVILLE AL
900 AM CDT SUN MAY 01 2016

ALZ001>004-011500-
NORTHWEST ALABAMA

CITY           SKY/WX    TMP DP  RH WIND       PRES   REMARKS
SHOALS AIRPORT NOT AVBL
SHOALS TVA RES   N/A     68 N/A N/A MISG        N/A
$$

ALZ005>007-016-011500-
NORTH CENTRAL ALABAMA

CITY           SKY/WX    TMP DP  RH WIND       PRES   REMARKS
DECATUR AP     CLOUDY    68  65  90 S8        30.00R
HUNTSVILLE AP  CLOUDY    70  63  78 SW6       30.00R
HUN NWS/UAH      N/A     70  62  75 SW5         N/A
MERIDIANVILLE  CLOUDY    68  59  73 SW7       30.01R
REDSTONE ARSN  CLOUDY    68  64  87 SW6       30.00R
VINEMONT AP    LGT RAIN  67  63  88 SW5       30.04R
$$

ALZ008>010-011500-
NORTHEAST ALABAMA

CITY           SKY/WX    TMP DP  RH WIND       PRES   REMARKS
ALBERTVILLE    CLOUDY    70  70 100 SW7       30.01R
FORT PAYNE     PTSUNNY   72  61  68 SW8       30.01S
SCOTTSBORO AP  CLOUDY    72  68  88 SW5       30.01R
SCOTTSBORO HCN   N/A     70 N/A N/A MISG        N/A
VALLEY HEAD      N/A     72 N/A N/A MISG        N/A
$$

TNZ076-096-097-011500-
SOUTHEASTERN MIDDLE TENNESSEE

CITY           SKY/WX    TMP DP  RH WIND       PRES   REMARKS
TULLAHOMA      CLOUDY    66  66 100 S7        30.01S
WINCHESTER     CLOUDY    70  63  78 VRB3      30.01S
$$

...SURROUNDING SITES...

CITY           SKY/WX    TMP DP  RH WIND       PRES   REMARKS
ATLANTA        MOSUNNY   74  67  78 S7        30.04R
ANNISTON       MOSUNNY   76  67  73 W6        30.01S
BIRMINGHAM     CLOUDY    71  66  84 S3        30.03R
CHATTANOOGA    PTSUNNY   72  65  78 VRB3      30.01R
DALTON         CLOUDY    70  70 100 S3        30.03R
GADSDEN        MOSUNNY   73  67  81 CALM      30.02
GOLDEN TRNGL   TSTM      66  63  88 SE7       29.97S
HALEYVILLE     FAIR      71  64  78 SW7       30.02R
JACKSON TN     MOSUNNY   72  66  81 SW5       29.94R
MEMPHIS        MOSUNNY   74  67  78 S3        29.92R
NASHVILLE      PTSUNNY   69  63  81 S8        29.97R
OXFORD MS      CLOUDY    66  64  94 S5        29.97R FOG
ROME           PTSUNNY   73  66  78 S6        30.01S
SAVANNAH       CLOUDY    70  66  88 VRB6      29.95S
TUPELO         CLOUDY    69  63  81 SE5       29.96R
TUSCALOOSA     CLOUDY    70  68  93 S9        29.98S
$$

...GULF COAST WEATHER...

CITY           SKY/WX    TMP DP  RH WIND       PRES   REMARKS
GULFPORT       CLOUDY    77  73  87 SE13      29.94R
PASCAGOULA     CLOUDY    77  73  87 SE13      29.97R
MOBILE         CLOUDY    76  75  97 SE12      29.97F
GULF SHORES    CLOUDY    77  75  94 SE13G18   29.98R
DESTIN         CLOUDY    78  75  90 SE12      30.00R
PANAMA CITY    MOSUNNY   78  71  80 SE13      30.01R
APPALACHICOLA  MOSUNNY   80  71  74 S10       30.02R
$$




USA.gov is the U.S. government's official web portal to all federal, state and local government web resources and services.